User: anonymous   Login
Location: Lane
(33.5226°N, 79.8788°W)
Time: 14:43:45
(UTC+00:00)
Language:

S-56A Canister/Altair - Orbit

View from above orbital plane
View from above orbital plane
View from above satellite
View from above satellite

Ground track
Ground track

The orbit data is extracted from the following two-line orbital elements,

1 00082U 61004B   22275.55812594  .00000133  00000-0  14704-3 0  9994
2 00082  38.8566 338.8967 1169815 163.3819 200.8822 12.26025965910554
Epoch (UTC): 02 October 2022 13:23:42
Eccentricity: 0.1169815
inclination: 38.8566°
perigee height: 637 km
apogee height: 2496 km
right ascension of ascending node: 338.8967°
argument of perigee: 163.3819°
revolutions per day: 12.26025965
mean anomaly at epoch: 200.8822°
orbit number at epoch: 91055

The dashed part of the orbit path shows where the satellite is in the earth's shadow,  

DLR